Regional Weather Roundup
Issued by NWS

Home | Current Version | Previous Version | Graphics & Text | Print | Product List | Glossary On
Versions: 1 2 3 4 5 6 7 8 9 10 11 12 13 14 15 16 17 18 19 20 21 22 23 24 25 26 27 28 29 30 31 32 33 34 35 36 37 38 39 40 41 42 43 44 45 46 47 48 49 50
000
ASUS43 KLOT 211100
RWRIL

ILLINOIS REGIONAL WEATHER ROUNDUP
NATIONAL WEATHER SERVICE CHICAGO/ROMEOVILLE IL
600 AM CDT TUE OCT 21 2014

NOTE: "FAIR" INDICATES FEW OR NO CLOUDS BELOW 12,000 FEET WITH NO
SIGNIFICANT WEATHER AND/OR OBSTRUCTIONS TO VISIBILITY.

* THESE STATIONS ARE NOT UNDER NWS QUALITY CONTROL. THEY ALSO MAY NOT
  REPORT WEATHER SUCH AS PRECIPITATION OR FOG.

ILZ001-002-007-009-015-016-024-211200-
NORTHWEST ILLINOIS

CITY           SKY/WX    TMP DP  RH WIND       PRES   REMARKS
MOLINE         CLEAR     37  36  96 CALM      30.11R
STERLING*      CLEAR     41  36  81 N6        30.11R
$$

ILZ003-004-008-010-011-017-018-211200-
NORTH CENTRAL ILLINOIS

CITY           SKY/WX    TMP DP  RH WIND       PRES   REMARKS
ROCKFORD       MOCLDY    43  39  86 N6        30.13R
$$

ILZ005-006-012>014-019>023-211200-
NORTHEAST ILLINOIS

CITY           SKY/WX    TMP DP  RH WIND       PRES   REMARKS
CHICAGO-OHARE  MOCLDY    48  40  73 N10       30.07R
CHICAGO-MIDWAY CLOUDY    51  43  74 N9        30.06R
AURORA         MOCLDY    44  39  82 N7        30.09R
WAUKEGAN       CLOUDY    45  39  79 NW6       30.08R
DUPAGE AIRPORT MOCLDY    47  40  76 N9        30.08R
WHEELING       CLEAR     47  40  76 N9        30.09R
NORTHERLY ISL    N/A     51  42  71 N15         N/A
$$

LMZ740>746-211200-
SOUTHERN LAKE MICHIGAN

STATION/POSITION SKY/WX   TEMP    WIND        PRES    VSBY  WAVE
                          AIR SEA DIR/SP/G                  HT/PER
                          (F)     (DEG/KT/KT) (MB)    (MI)  (FT/S)
SOUTHERN BUOY              49 54  330/ 19/ 23 1016.9R         5/ 6
WAUKEGAN HARBOR            46     320/  8/ 11   N/A
HARRISON CRIB              51     350/ 21/ 25   N/A
BURNHAM HARBOR             51     340/ 13/ 16   N/A
CALUMET HARBOR             51     340/ 12/ 17 1016.3R
MICHIGAN CITY              50     350/ 22/ 25   N/A
$$

ILZ025>027-034>036-040-047-049-050-058-095>099-211200-
WEST-CENTRAL ILLINOIS

CITY           SKY/WX    TMP DP  RH WIND       PRES   REMARKS
QUINCY         CLEAR     43  40  89 NE6       30.08R
$$

ILZ028>032-037-038-041>044-048-051>054-059>061-211200-
CENTRAL ILLINOIS

CITY           SKY/WX    TMP DP  RH WIND       PRES   REMARKS
DECATUR        CLEAR     45  44  97 N3        30.07R FOG
PEORIA         CLEAR     46  39  76 N3        30.09R
SPRINGFIELD    CLEAR     41  40  96 CALM      30.08R
TAYLORVILLE    NOT AVBL
$$

ILZ033-039-045-046-055>057-062-063-211200-
EAST-CENTRAL ILLINOIS

CITY           SKY/WX    TMP DP  RH WIND       PRES   REMARKS
CHAMPAIGN      CLOUDY    44  43  96 N5        30.06R FOG
MATTOON        CLEAR     42  41  96 NW5       30.05R
$$

ILZ079-100>102-211200-
SOUTHWEST ILLINOIS

CITY           SKY/WX    TMP DP  RH WIND       PRES   REMARKS
BELLEVILLE     CLEAR     45  44  97 CALM      30.05R
CAHOKIA*       CLEAR     44  42  93 CALM      30.06R
$$

ILZ064>066-069>071-074>076-080>082-084>086-088>090-092>094-211200-
SOUTH-CENTRAL ILLINOIS

CITY           SKY/WX    TMP DP  RH WIND       PRES   REMARKS
CARBONDALE     CLEAR     42  40  92 CALM      30.05R
MT. VERNON     CLEAR     39  36  87 CALM      30.05R
$$

ILZ067-068-072-073-078-083-087-091-211200-
SOUTHEAST ILLINOIS

CITY           SKY/WX    TMP DP  RH WIND       PRES   REMARKS
LAWRENCEVILLE  CLEAR     43  42  97 N3        30.04R
$$

ABBREVIATIONS USED IN REMARKS
   TC - TEMPERATURE IN CELSIUS
  WCI - WIND CHILL INDEX
   HX - HEAT INDEX
  VSB - VISIBILITY
$$



USA.gov is the U.S. government's official web portal to all federal, state and local government web resources and services.